20050629,000015,12721,32.707183,-117.236735,22.391,3.253,-0.212,-0.100
20050629,000046,12752,32.707190,-117.236728,22.393,3.253,-0.212,-0.100
20050629,000115,12780,32.707196,-117.236728,22.394,3.253,-0.212,-0.100
20050629,000146,12812,32.707196,-117.236727,22.396,3.253,-0.206,-0.097
20050629,000216,12841,32.707191,-117.236732,22.396,3.253,-0.206,-0.097
20050629,000246,12872,32.707195,-117.236733,22.399,3.253,-0.206,-0.097
20050629,000316,12902,32.707195,-117.236730,22.399,3.253,-0.212,-0.100
20050629,000346,12932,32.707196,-117.236730,22.402,3.253,-0.212,-0.100
20050629,000416,12962,32.707196,-117.236727,22.403,3.253,-0.206,-0.097
20050629,000446,12991,32.707196,-117.236725,22.404,3.252,-0.212,-0.100
20050629,000516,13021,32.707203,-117.236728,22.405,3.252,-0.206,-0.096
20050629,000546,13052,32.707201,-117.236727,22.407,3.252,-0.212,-0.100
20050629,000616,13082,32.707203,-117.236728,22.408,3.252,-0.206,-0.096
20050629,000647,13112,32.707198,-117.236732,22.410,3.252,-0.206,-0.096
20050629,000717,13143,32.707201,-117.236735,22.411,3.252,-0.212,-0.099
20050629,000746,13171,32.707196,-117.236737,22.413,3.252,-0.212,-0.099
20050629,000816,13201,32.707195,-117.236733,22.413,3.253,-0.206,-0.096
20050629,000846,13232,32.707196,-117.236740,22.415,3.253,-0.212,-0.099
20050629,000916,13262,32.707198,-117.236737,22.416,3.253,-0.212,-0.099
20050629,000946,13292,32.707196,-117.236738,22.417,3.253,-0.212,-0.099
20050629,001016,13321,32.707200,-117.236738,22.419,3.253,-0.212,-0.099
20050629,001047,13353,32.707193,-117.236737,22.419,3.253,-0.212,-0.099
20050629,001116,13382,32.707193,-117.236740,22.420,3.253,-0.206,-0.096
20050629,001147,13412,32.707191,-117.236742,22.422,3.253,-0.206,-0.096
20050629,001217,13442,32.707193,-117.236737,22.423,3.253,-0.212,-0.099
20050629,001246,13472,32.707190,-117.236737,22.424,3.253,-0.212,-0.099
20050629,001317,13503,32.707195,-117.236738,22.425,3.253,-0.212,-0.099
20050629,001347,13533,32.707191,-117.236737,22.426,3.252,-0.206,-0.096
20050629,001417,13563,32.707195,-117.236742,22.427,3.252,-0.206,-0.096
20050629,001446,13592,32.707191,-117.236740,22.428,3.252,-0.206,-0.096
20050629,001517,13622,32.707196,-117.236735,22.429,3.252,-0.212,-0.099
20050629,001547,13653,32.707193,-117.236740,22.430,3.252,-0.206,-0.095
20050629,001617,13683,32.707198,-117.236743,22.432,3.252,-0.206,-0.095
20050629,001647,13713,32.707198,-117.236742,22.433,3.252,-0.206,-0.095
20050629,001717,13742,32.707200,-117.236742,22.433,3.252,-0.206,-0.095
20050629,001748,13774,32.707200,-117.236742,22.435,3.253,-0.212,-0.098
20050629,001818,13804,32.707205,-117.236738,22.435,3.253,-0.212,-0.098
20050629,001847,13833,32.707208,-117.236740,22.436,3.252,-0.212,-0.098
20050629,001917,13863,32.707203,-117.236738,22.437,3.253,-0.212,-0.098
20050629,001947,13893,32.707205,-117.236738,22.438,3.253,-0.206,-0.095
20050629,002017,13922,32.707205,-117.236743,22.439,3.252,-0.212,-0.098
20050629,002048,13954,32.707206,-117.236738,22.441,3.253,-0.206,-0.095
20050629,002118,13983,32.707205,-117.236737,22.441,3.253,-0.212,-0.098
20050629,002148,14013,32.707205,-117.236738,22.441,3.253,-0.212,-0.098
20050629,002218,14044,32.707198,-117.236735,22.443,3.253,-0.206,-0.095
20050629,002248,14074,32.707206,-117.236735,22.444,3.253,-0.212,-0.098
20050629,002317,14102,32.707206,-117.236733,22.444,3.253,-0.212,-0.098
20050629,002348,14134,32.707205,-117.236733,22.445,3.253,-0.206,-0.095
20050629,002418,14163,32.707200,-117.236737,22.446,3.253,-0.212,-0.098
20050629,002448,14193,32.707205,-117.236740,22.447,3.252,-0.212,-0.098
20050629,002518,14224,32.707203,-117.236738,22.448,3.252,-0.206,-0.094
20050629,002548,14254,32.707210,-117.236742,22.448,3.252,-0.206,-0.094
20050629,002618,14284,32.707205,-117.236735,22.450,3.252,-0.206,-0.094
20050629,002648,14314,32.707201,-117.236730,22.450,3.252,-0.206,-0.094
20050629,002719,14345,32.707200,-117.236735,22.451,3.252,-0.212,-0.097
20050629,002748,14373,32.707205,-117.236738,22.453,3.252,-0.212,-0.097
20050629,002819,14404,32.707203,-117.236735,22.453,3.252,-0.206,-0.094
20050629,002848,14434,32.707203,-117.236740,22.453,3.252,-0.212,-0.097
20050629,002919,14465,32.707203,-117.236735,22.455,3.252,-0.212,-0.097
20050629,002949,14495,32.707205,-117.236738,22.456,3.252,-0.206,-0.094
20050629,003019,14525,32.707206,-117.236738,22.457,3.252,-0.206,-0.094
20050629,003048,14554,32.707210,-117.236733,22.457,3.252,-0.206,-0.094
20050629,003118,14584,32.707210,-117.236733,22.459,3.252,-0.212,-0.097
20050629,003149,14614,32.707210,-117.236733,22.459,3.252,-0.206,-0.094
20050629,003219,14645,32.707213,-117.236732,22.460,3.252,-0.206,-0.094
20050629,003250,14675,32.707210,-117.236733,22.461,3.253,-0.206,-0.094
20050629,003320,14706,32.707211,-117.236737,22.462,3.252,-0.206,-0.093
20050629,003350,14736,32.707201,-117.236737,22.462,3.252,-0.212,-0.097
20050629,003420,14766,32.707201,-117.236738,22.464,3.252,-0.206,-0.093
20050629,003450,14796,32.707200,-117.236737,22.465,3.253,-0.212,-0.096
20050629,003520,14825,32.707200,-117.236738,22.465,3.253,-0.212,-0.096
20050629,003550,14855,32.707198,-117.236733,22.466,3.253,-0.206,-0.093
20050629,003620,14886,32.707201,-117.236735,22.467,3.253,-0.206,-0.093
20050629,003650,14916,32.707198,-117.236735,22.468,3.253,-0.206,-0.093
20050629,003720,14946,32.707201,-117.236738,22.469,3.252,-0.206,-0.093
20050629,003750,14976,32.707201,-117.236738,22.469,3.252,-0.212,-0.096
20050629,003820,15005,32.707203,-117.236737,22.471,3.252,-0.212,-0.096
20050629,003850,15035,32.707200,-117.236738,22.471,3.252,-0.212,-0.096
20050629,003920,15066,32.707205,-117.236735,22.472,3.252,-0.206,-0.093
20050629,003950,15096,32.707201,-117.236733,22.473,3.252,-0.206,-0.093
20050629,004020,15126,32.707206,-117.236740,22.474,3.252,-0.212,-0.096
20050629,004050,15155,32.707201,-117.236740,22.475,3.252,-0.212,-0.096
20050629,004120,15185,32.707198,-117.236738,22.476,3.252,-0.206,-0.092
20050629,004150,15216,32.707201,-117.236737,22.477,3.252,-0.212,-0.095
20050629,004221,15246,32.707200,-117.236732,22.477,3.252,-0.212,-0.095
20050629,004251,15276,32.707198,-117.236733,22.478,3.252,-0.206,-0.092
20050629,004322,15308,32.707198,-117.236735,22.480,3.252,-0.206,-0.092
20050629,004351,15337,32.707196,-117.236737,22.481,3.252,-0.212,-0.095
20050629,004422,15368,32.707196,-117.236737,22.482,3.252,-0.206,-0.092
20050629,004451,15397,32.707196,-117.236737,22.482,3.252,-0.212,-0.095
20050629,004522,15428,32.707198,-117.236733,22.484,3.252,-0.212,-0.095
20050629,004552,15458,32.707191,-117.236733,22.485,3.252,-0.206,-0.092
20050629,004622,15487,32.707193,-117.236728,22.485,3.252,-0.206,-0.092
20050629,004652,15517,32.707203,-117.236738,22.486,3.252,-0.212,-0.095
20050629,004721,15547,32.707195,-117.236743,22.487,3.252,-0.212,-0.095
20050629,004752,15578,32.707185,-117.236737,22.489,3.252,-0.212,-0.095
20050629,004822,15608,32.707180,-117.236722,22.489,3.252,-0.206,-0.092
20050629,004852,15638,32.707175,-117.236713,22.490,3.252,-0.212,-0.095
20050629,004921,15667,32.707171,-117.236698,22.491,3.252,-0.212,-0.094
20050629,004951,15697,32.707170,-117.236690,22.492,3.252,-0.212,-0.094
20050629,005021,15727,32.707171,-117.236683,22.493,3.252,-0.212,-0.094
20050629,005052,15758,32.707171,-117.236673,22.494,3.252,-0.212,-0.094
20050629,005121,15786,32.707240,-117.236693,22.494,3.252,-0.212,-0.094
20050629,005152,15817,32.707186,-117.236728,22.495,3.252,-0.206,-0.091
20050629,005222,15847,32.707191,-117.236737,22.495,3.252,-0.206,-0.091
20050629,005252,15878,32.707186,-117.236733,22.497,3.252,-0.212,-0.094
20050629,005322,15908,32.707193,-117.236733,22.497,3.252,-0.212,-0.094
20050629,005352,15938,32.707190,-117.236732,22.499,3.252,-0.212,-0.094
20050629,005423,15969,32.707191,-117.236738,22.499,3.252,-0.206,-0.091
20050629,005452,15997,32.707190,-117.236740,22.500,3.252,-0.206,-0.091
20050629,005522,16027,32.707191,-117.236737,22.501,3.252,-0.212,-0.094
20050629,005552,16058,32.707191,-117.236733,22.502,3.252,-0.212,-0.093
20050629,005622,16088,32.707190,-117.236732,22.503,3.252,-0.212,-0.093
20050629,005652,16118,32.707191,-117.236733,22.504,3.252,-0.206,-0.090
20050629,005722,16148,32.707188,-117.236730,22.504,3.252,-0.206,-0.090
20050629,005752,16177,32.707191,-117.236733,22.505,3.252,-0.212,-0.093
20050629,005822,16207,32.707195,-117.236735,22.506,3.252,-0.206,-0.090
20050629,005852,16238,32.707193,-117.236735,22.507,3.252,-0.212,-0.093
20050629,005922,16268,32.707195,-117.236737,22.508,3.252,-0.206,-0.090
20050629,005952,16298,32.707196,-117.236737,22.509,3.252,-0.212,-0.093
20050629,010022,16327,32.707195,-117.236737,22.510,3.252,-0.206,-0.090
20050629,010053,16359,32.707195,-117.236733,22.511,3.252,-0.206,-0.090
20050629,010123,16389,32.707195,-117.236735,22.511,3.252,-0.206,-0.090
20050629,010153,16418,32.707196,-117.236740,22.513,3.252,-0.212,-0.092
20050629,010223,16448,32.707198,-117.236742,22.513,3.252,-0.212,-0.092
20050629,010253,16479,32.707198,-117.236738,22.514,3.252,-0.206,-0.089
20050629,010323,16509,32.707196,-117.236735,22.515,3.252,-0.212,-0.092
20050629,010353,16539,32.707200,-117.236738,22.516,3.252,-0.206,-0.089
20050629,010423,16569,32.707193,-117.236732,22.516,3.252,-0.206,-0.089
20050629,010453,16598,32.707196,-117.236740,22.517,3.252,-0.206,-0.089
20050629,010523,16629,32.707196,-117.236738,22.517,3.252,-0.206,-0.089
20050629,010554,16659,32.707195,-117.236742,22.519,3.252,-0.206,-0.089
20050629,010624,16689,32.707195,-117.236742,22.518,3.252,-0.206,-0.088
20050629,010654,16720,32.707193,-117.236738,22.520,3.252,-0.206,-0.088
20050629,010724,16750,32.707196,-117.236742,22.521,3.252,-0.206,-0.088
20050629,010754,16780,32.707193,-117.236740,22.522,3.252,-0.212,-0.091
20050629,010823,16809,32.707196,-117.236743,22.522,3.252,-0.206,-0.088
20050629,010854,16839,32.707195,-117.236742,22.522,3.252,-0.212,-0.091
20050629,010924,16869,32.707193,-117.236743,22.524,3.252,-0.212,-0.091
20050629,010954,16900,32.707195,-117.236743,22.524,3.252,-0.212,-0.091
20050629,011023,16928,32.707193,-117.236738,22.525,3.252,-0.212,-0.091
20050629,011053,16958,32.707195,-117.236740,22.527,3.252,-0.212,-0.091
20050629,011124,16989,32.707191,-117.236733,22.527,3.252,-0.206,-0.088
20050629,011154,17019,32.707196,-117.236738,22.527,3.252,-0.206,-0.088
20050629,011223,17049,32.707213,-117.236725,22.528,3.252,-0.212,-0.090
20050629,011254,17080,32.707213,-117.236722,22.528,3.252,-0.212,-0.090
20050629,011324,17110,32.707216,-117.236722,22.529,3.252,-0.212,-0.090
20050629,011354,17140,32.707218,-117.236725,22.529,3.252,-0.206,-0.088
20050629,011424,17169,32.707215,-117.236728,22.530,3.252,-0.206,-0.087
20050629,011454,17199,32.707220,-117.236727,22.530,3.252,-0.206,-0.087
20050629,011525,17231,32.707218,-117.236727,22.531,3.252,-0.212,-0.090
20050629,011555,17260,32.707211,-117.236732,22.532,3.252,-0.206,-0.087
20050629,011625,17290,32.707211,-117.236728,22.532,3.252,-0.206,-0.087
20050629,011655,17321,32.707210,-117.236730,22.533,3.252,-0.206,-0.087
20050629,011725,17351,32.707210,-117.236733,22.533,3.252,-0.212,-0.090
20050629,011755,17381,32.707206,-117.236733,22.534,3.252,-0.206,-0.087
20050629,011825,17410,32.707215,-117.236733,22.534,3.252,-0.212,-0.090
20050629,011855,17440,32.707213,-117.236735,22.534,3.252,-0.212,-0.090
20050629,011925,17471,32.707210,-117.236732,22.534,3.252,-0.212,-0.089
20050629,011955,17501,32.707213,-117.236735,22.536,3.252,-0.212,-0.089
20050629,012025,17531,32.707213,-117.236735,22.536,3.252,-0.206,-0.083
20050629,012056,17562,32.707205,-117.236732,22.536,3.252,-0.206,-0.086
20050629,012125,17590,32.707210,-117.236735,22.537,3.252,-0.206,-0.086
20050629,012156,17622,32.707213,-117.236732,22.537,3.252,-0.206,-0.086
20050629,012226,17651,32.707213,-117.236728,22.538,3.252,-0.212,-0.089
20050629,012256,17681,32.707220,-117.236733,22.538,3.252,-0.212,-0.089
20050629,012326,17712,32.707226,-117.236735,22.540,3.252,-0.212,-0.087
20050629,012356,17742,32.707221,-117.236732,22.540,3.252,-0.206,-0.084
20050629,012426,17772,32.707221,-117.236733,22.540,3.252,-0.212,-0.086
20050629,012456,17802,32.707226,-117.236735,22.541,3.252,-0.212,-0.087
20050629,012527,17833,32.707211,-117.236730,22.541,3.252,-0.212,-0.086
20050629,012556,17861,32.707211,-117.236732,22.541,3.252,-0.212,-0.083
20050629,012626,17892,32.707191,-117.236733,22.543,3.252,-0.212,-0.087
20050629,012656,17922,32.707191,-117.236732,22.543,3.252,-0.206,-0.077
20050629,012727,17952,32.707191,-117.236737,22.543,3.252,-0.206,-0.077
20050629,012757,17983,32.707190,-117.236732,22.544,3.252,-0.212,-0.085
20050629,012827,18013,32.707186,-117.236732,22.545,3.252,-0.212,-0.074
20050629,012857,18043,32.707188,-117.236737,22.546,3.252,-0.212,-0.077
20050629,012926,18072,32.707193,-117.236735,22.547,3.252,-0.206,-0.075
20050629,012957,18102,32.707188,-117.236737,22.547,3.252,-0.206,-0.072
20050629,013026,18132,32.707190,-117.236738,22.547,3.252,-0.212,-0.081
20050629,013057,18163,32.707188,-117.236740,22.547,3.252,-0.206,-0.074
20050629,013127,18193,32.707183,-117.236740,22.547,3.252,-0.212,-0.075
20050629,013156,18222,32.707186,-117.236740,22.548,3.252,-0.206,-0.075
20050629,013227,18252,32.707186,-117.236740,22.548,3.252,-0.206,-0.072
20050629,013258,18284,32.707183,-117.236742,22.549,3.252,-0.212,-0.074
20050629,013327,18313,32.707186,-117.236743,22.550,3.252,-0.206,-0.074
20050629,013358,18343,32.707185,-117.236745,22.550,3.252,-0.206,-0.068
20050629,013427,18373,32.707183,-117.236743,22.550,3.251,-0.212,-0.072
20050629,013457,18403,32.707183,-117.236740,22.551,3.251,-0.206,-0.069
20050629,013527,18432,32.707186,-117.236742,22.552,3.251,-0.212,-0.070
20050629,013558,18464,32.707186,-117.236738,22.552,3.252,-0.206,-0.067
20050629,013628,18493,32.707183,-117.236737,22.553,3.252,-0.206,-0.069
20050629,013657,18523,32.707191,-117.236755,22.553,3.252,-0.206,-0.068
20050629,013727,18553,32.707190,-117.236727,22.553,3.252,-0.206,-0.066
20050629,013757,18582,32.707186,-117.236727,22.554,3.252,-0.212,-0.068
20050629,013827,18612,32.707185,-117.236727,22.554,3.251,-0.212,-0.068
20050629,013857,18643,32.707193,-117.236728,22.555,3.252,-0.206,-0.066
20050629,013928,18673,32.707195,-117.236725,22.555,3.252,-0.206,-0.066
20050629,013957,18703,32.707186,-117.236720,22.555,3.252,-0.212,-0.068
20050629,014028,18734,32.707186,-117.236722,22.556,3.252,-0.206,-0.066
20050629,014058,18764,32.707188,-117.236727,22.556,3.252,-0.212,-0.069
20050629,014128,18794,32.707193,-117.236727,22.556,3.252,-0.206,-0.067
20050629,014158,18823,32.707193,-117.236728,22.556,3.252,-0.212,-0.073
20050629,014227,18853,32.707198,-117.236730,22.557,3.252,-0.206,-0.067
20050629,014258,18884,32.707193,-117.236727,22.558,3.252,-0.206,-0.069
20050629,014328,18914,32.707191,-117.236725,22.557,3.252,-0.212,-0.081
20050629,014358,18944,32.707185,-117.236723,22.558,3.252,-0.212,-0.075
20050629,014429,18975,32.707191,-117.236730,22.558,3.252,-0.212,-0.074
20050629,014458,19003,32.707191,-117.236733,22.559,3.252,-0.206,-0.067
20050629,014529,19035,32.707193,-117.236728,22.560,3.252,-0.212,-0.075
20050629,014559,19065,32.707195,-117.236725,22.560,3.252,-0.212,-0.074
20050629,014628,19094,32.707193,-117.236727,22.560,3.252,-0.212,-0.069
20050629,014658,19124,32.707183,-117.236723,22.561,3.252,-0.212,-0.080
20050629,014728,19154,32.707185,-117.236725,22.562,3.252,-0.212,-0.078
20050629,014758,19183,32.707185,-117.236717,22.562,3.252,-0.212,-0.076
20050629,014829,19215,32.707186,-117.236722,22.562,3.252,-0.212,-0.080
20050629,014858,19244,32.707193,-117.236727,22.562,3.252,-0.212,-0.072
20050629,014928,19274,32.707188,-117.236727,22.563,3.252,-0.206,-0.073
20050629,014958,19304,32.707210,-117.236740,22.563,3.252,-0.212,-0.078
20050629,015029,19335,32.707198,-117.236730,22.565,3.252,-0.206,-0.077
20050629,015058,19363,32.707191,-117.236730,22.564,3.252,-0.206,-0.077
20050629,015128,19394,32.707183,-117.236733,22.565,3.252,-0.212,-0.081
20050629,015158,19424,32.707186,-117.236735,22.565,3.252,-0.206,-0.077
20050629,015228,19454,32.707191,-117.236735,22.565,3.252,-0.206,-0.073
20050629,015259,19485,32.707196,-117.236733,22.565,3.252,-0.206,-0.078
20050629,015328,19513,32.707198,-117.236735,22.566,3.252,-0.206,-0.078
20050629,015358,19543,32.707198,-117.236735,22.566,3.252,-0.212,-0.081
20050629,015428,19574,32.707196,-117.236733,22.566,3.252,-0.206,-0.078
20050629,015459,19604,32.707196,-117.236738,22.567,3.252,-0.212,-0.079
20050629,015530,19636,32.707198,-117.236738,22.567,3.252,-0.206,-0.076
20050629,015600,19665,32.707196,-117.236737,22.568,3.252,-0.206,-0.078
20050629,015630,19695,32.707195,-117.236733,22.569,3.252,-0.206,-0.078
20050629,015659,19725,32.707188,-117.236735,22.569,3.252,-0.206,-0.077
20050629,015729,19754,32.707185,-117.236728,22.569,3.252,-0.212,-0.079
20050629,015800,19786,32.707186,-117.236727,22.569,3.252,-0.212,-0.077
20050629,015830,19816,32.707188,-117.236728,22.569,3.252,-0.212,-0.076
20050629,015900,19845,32.707193,-117.236735,22.569,3.252,-0.206,-0.074
20050629,015930,19875,32.707196,-117.236732,22.569,3.252,-0.206,-0.065
20050629,020000,19906,32.707195,-117.236732,22.570,3.252,-0.206,-0.064
20050629,020030,19936,32.707195,-117.236730,22.570,3.252,-0.212,-0.072
20050629,020100,19966,32.707188,-117.236723,22.569,3.252,-0.206,-0.068
20050629,020130,19995,32.707191,-117.236720,22.570,3.252,-0.212,-0.065
20050629,020200,20025,32.707188,-117.236725,22.571,3.251,-0.206,-0.063
20050629,020230,20056,32.707193,-117.236732,22.571,3.251,-0.206,-0.063
20050629,020300,20086,32.707191,-117.236730,22.571,3.251,-0.212,-0.065
20050629,020330,20116,32.707191,-117.236727,22.570,3.252,-0.212,-0.065
20050629,020400,20146,32.707203,-117.236727,22.571,3.251,-0.212,-0.065
20050629,020431,20177,32.707205,-117.236728,22.571,3.251,-0.206,-0.063
20050629,020501,20207,32.707201,-117.236728,22.571,3.251,-0.212,-0.065
20050629,020531,20237,32.707201,-117.236723,22.571,3.251,-0.212,-0.065
20050629,020601,20266,32.707201,-117.236722,22.571,3.251,-0.206,-0.063
20050629,020631,20297,32.707200,-117.236723,22.571,3.251,-0.218,-0.067
20050629,020701,20327,32.707200,-117.236725,22.571,3.251,-0.206,-0.063
20050629,020731,20357,32.707201,-117.236722,22.571,3.251,-0.206,-0.063
20050629,020801,20387,32.707201,-117.236723,22.572,3.251,-0.212,-0.065
20050629,020831,20416,32.707203,-117.236723,22.571,3.251,-0.212,-0.065
20050629,020902,20448,32.707198,-117.236723,22.572,3.251,-0.212,-0.065
20050629,020932,20478,32.707201,-117.236727,22.571,3.251,-0.206,-0.063
20050629,021001,20507,32.707200,-117.236720,22.572,3.251,-0.206,-0.063
20050629,021032,20537,32.707201,-117.236717,22.572,3.251,-0.212,-0.065
20050629,021101,20567,32.707198,-117.236722,22.572,3.251,-0.212,-0.065
20050629,021131,20596,32.707196,-117.236720,22.572,3.251,-0.212,-0.065
20050629,021202,20628,32.707196,-117.236723,22.572,3.251,-0.212,-0.065
20050629,021232,20657,32.707200,-117.236720,22.572,3.251,-0.212,-0.065
20050629,021303,20689,32.707200,-117.236717,22.572,3.251,-0.212,-0.065
20050629,021333,20719,32.707203,-117.236720,22.572,3.251,-0.212,-0.065
20050629,021402,20748,32.707203,-117.236722,22.572,3.251,-0.206,-0.063
20050629,021432,20778,32.707201,-117.236720,22.572,3.251,-0.206,-0.063
20050629,021502,20808,32.707201,-117.236723,22.572,3.251,-0.212,-0.065
20050629,021532,20837,32.707201,-117.236718,22.572,3.251,-0.206,-0.063
20050629,021603,20869,32.707201,-117.236722,22.572,3.251,-0.206,-0.063
20050629,021632,20898,32.707201,-117.236718,22.572,3.251,-0.212,-0.065
20050629,021702,20928,32.707201,-117.236720,22.572,3.251,-0.206,-0.062
20050629,021733,20958,32.707201,-117.236722,22.572,3.251,-0.206,-0.062
20050629,021802,20988,32.707198,-117.236722,22.571,3.251,-0.206,-0.062
20050629,021832,21017,32.707200,-117.236720,22.572,3.251,-0.212,-0.064
20050629,021902,21047,32.707203,-117.236720,22.571,3.251,-0.212,-0.064
20050629,021932,21078,32.707201,-117.236717,22.572,3.251,-0.212,-0.064
20050629,022003,21108,32.707200,-117.236720,22.572,3.251,-0.212,-0.064
20050629,022033,21139,32.707201,-117.236717,22.572,3.251,-0.212,-0.064
20050629,022104,21169,32.707201,-117.236722,22.572,3.251,-0.212,-0.064
20050629,022133,21199,32.707205,-117.236720,22.572,3.251,-0.212,-0.064
20050629,022203,21229,32.707205,-117.236720,22.572,3.251,-0.206,-0.062
20050629,022233,21258,32.707205,-117.236718,22.572,3.251,-0.212,-0.064
20050629,022304,21290,32.707208,-117.236718,22.572,3.251,-0.206,-0.062
20050629,022334,21319,32.707203,-117.236722,22.572,3.251,-0.206,-0.062
20050629,022404,21349,32.707210,-117.236723,22.572,3.251,-0.206,-0.062
20050629,022435,21381,32.707210,-117.236725,22.572,3.251,-0.206,-0.062
20050629,022505,21410,32.707205,-117.236720,22.571,3.251,-0.206,-0.062
20050629,022535,21440,32.707210,-117.236718,22.572,3.251,-0.206,-0.062
20050629,022605,21471,32.707203,-117.236720,22.571,3.251,-0.212,-0.064
20050629,022636,21501,32.707203,-117.236717,22.571,3.251,-0.212,-0.064
20050629,022705,21531,32.707205,-117.236718,22.571,3.251,-0.212,-0.064
20050629,022735,21561,32.707203,-117.236720,22.571,3.251,-0.212,-0.064
20050629,022805,21590,32.707201,-117.236720,22.571,3.251,-0.206,-0.062
20050629,022836,21622,32.707201,-117.236720,22.571,3.251,-0.212,-0.064
20050629,022906,21651,32.707200,-117.236717,22.571,3.251,-0.212,-0.064
20050629,022935,21681,32.707203,-117.236722,22.570,3.251,-0.212,-0.064
20050629,023006,21712,32.707201,-117.236718,22.570,3.251,-0.206,-0.061
20050629,023035,21740,32.707200,-117.236720,22.570,3.251,-0.206,-0.061
20050629,023106,21772,32.707205,-117.236722,22.571,3.251,-0.206,-0.061
20050629,023136,21802,32.707203,-117.236718,22.569,3.251,-0.206,-0.061
20050629,023205,21831,32.707203,-117.236717,22.570,3.251,-0.212,-0.063
20050629,023236,21861,32.707206,-117.236715,22.570,3.251,-0.206,-0.061
20050629,023305,21891,32.707203,-117.236715,22.568,3.251,-0.206,-0.061
20050629,023336,21922,32.707205,-117.236715,22.569,3.251,-0.212,-0.063
20050629,023406,21952,32.707206,-117.236720,22.568,3.251,-0.206,-0.061
20050629,023436,21982,32.707203,-117.236722,22.568,3.251,-0.206,-0.061
20050629,023506,22011,32.707205,-117.236718,22.568,3.251,-0.206,-0.061
20050629,023536,22042,32.707206,-117.236717,22.567,3.251,-0.212,-0.063
20050629,023606,22072,32.707205,-117.236715,22.568,3.251,-0.212,-0.063
20050629,023636,22102,32.707206,-117.236713,22.567,3.251,-0.206,-0.061
20050629,023706,22132,32.707208,-117.236718,22.567,3.251,-0.206,-0.061
20050629,023737,22163,32.707208,-117.236715,22.567,3.251,-0.206,-0.061
20050629,023806,22191,32.707206,-117.236715,22.567,3.251,-0.212,-0.063
20050629,023837,22223,32.707210,-117.236717,22.567,3.251,-0.212,-0.063
20050629,023906,22252,32.707205,-117.236717,22.566,3.251,-0.206,-0.061
20050629,023937,22282,32.707210,-117.236715,22.566,3.251,-0.206,-0.061
20050629,024007,22313,32.707205,-117.236718,22.566,3.251,-0.206,-0.061
20050629,024037,22343,32.707203,-117.236720,22.565,3.251,-0.206,-0.061
20050629,024108,22374,32.707203,-117.236722,22.565,3.251,-0.206,-0.061
20050629,024137,22402,32.707206,-117.236722,22.565,3.251,-0.212,-0.063
20050629,024207,22432,32.707206,-117.236720,22.565,3.250,-0.206,-0.061
20050629,024238,22464,32.707206,-117.236718,22.564,3.251,-0.212,-0.063
20050629,024307,22493,32.707203,-117.236722,22.563,3.251,-0.206,-0.061
20050629,024337,22523,32.707208,-117.236723,22.563,3.251,-0.212,-0.063
20050629,024407,22553,32.707205,-117.236723,22.563,3.251,-0.212,-0.063
20050629,024437,22582,32.707205,-117.236722,22.563,3.251,-0.212,-0.063
20050629,024508,22614,32.707206,-117.236723,22.563,3.251,-0.212,-0.062
20050629,024538,22644,32.707203,-117.236722,22.562,3.251,-0.212,-0.062
20050629,024608,22673,32.707205,-117.236723,22.563,3.251,-0.206,-0.060
20050629,024639,22705,32.707200,-117.236723,22.562,3.251,-0.206,-0.060